Theta_e
280 280 281 283 284 286 288 291 293 294 296 299 303 311 316 316 315 315 315 311 308 307
278 279 280 281 283 285 287 290 292 294 295 295 296 308 314 313 311 312 311 309 309 307
276 278 279 281 282 284 286 288 291 292 294 294 294 306 311 311 309 310 308 307 305 304
275 277 279 279 281 283 285 287 289 292 292 292 294 306 309 309 306 307 306 304 303 302
274 275 276 277 280 282 284 287 288 291 292 292 296 306 307 306 305 304 301 300 301 301
273 274 275 277 279 282 283 286 289 292 292 292 293 303 306 305 304 302 301 300 300 299
272 274 275 276 278 280 284 286 288 292 292 292 297 303 304 301 301 300 298 299 301 300
273 275 275 276 278 280 284 286 289 290 290 294 301 302 300 299 299 297 296 297 299 299
277 278 277 278 278 281 284 285 288 288 289 293 299 298 297 298 297 295 295 295 296 297
280 284 279 282 283 284 284 286 288 290 293 295 296 296 296 295 295 294 295 295 294 293
280 284 285 285 285 285 286 288 290 292 293 294 294 295 295 292 294 295 294 294 295 294
279 281 282 284 286 287 288 288 286 290 291 292 293 294 293 293 292 291 290 291 292 293
278 279 280 282 283 285 286 285 285 286 288 290 291 293 292 291 289 288 288 288 288 289
276 278 279 281 282 282 283 284 284 284 285 287 289 290 291 291 289 288 287 287 287 288
Wind_Speed
18 12 13 15 14 12 12 10 12 12 14 10 12 15 15 11 11 12 12 16 13 12
16 18 17 18 16 12 15 12 13 14 14 13 13 14 15 12 12 13 12 13 14 12
17 19 18 15 18 18 17 16 16 16 15 14 13 15 15 12 13 15 11 10 14 11
17 18 17 17 18 18 18 17 17 18 17 10 11 15 15 14 14 16 16 13 15 15
19 18 18 20 20 18 19 18 18 20 19 17 12 13 19 14 16 17 17 17 16 16
20 18 20 22 21 19 19 20 18 20 19 17 15 15 18 18 17 17 18 18 18 17
19 19 20 21 21 20 18 19 20 17 16 17 17 17 18 16 17 16 16 18 19 18
18 19 20 21 21 19 19 18 17 14 16 13 15 13 16 16 18 16 16 15 15 16
17 16 19 19 18 19 19 18 16 14 14 13 11 18 22 21 16 18 18 17 14 14
14 10 16 17 18 17 20 15 17 15 16 15 13 23 26 24 15 17 16 17 16 13
17 7 9 12 13 13 12 15 13 14 13 13 11 25 26 23 16 14 15 16 17 17
18 14 13 10 8 9 10 9 3 7 10 13 15 27 27 20 13 13 12 10 13 14
19 19 17 16 14 11 12 11 8 9 7 13 16 25 25 20 13 14 11 9 8 14
22 19 18 18 16 14 14 15 15 14 9 10 16 18 24 23 13 12 12 9 7 7
Wind_Direction
267 260 258 254 249 251 248 252 248 254 240 234 240 241 215 203 188 196 181 171 165 162
262 256 254 252 252 249 246 247 245 255 250 236 244 252 211 199 188 181 189 168 171 163
262 258 254 250 247 243 243 240 245 244 254 238 231 236 212 191 181 180 183 167 165 159
260 255 252 248 244 241 239 236 236 241 240 238 219 216 203 189 176 180 169 173 167 169
263 256 247 243 242 233 238 230 230 237 235 233 230 217 202 187 176 173 171 165 170 169
262 250 243 242 237 231 228 231 228 232 231 223 226 214 212 189 176 174 172 168 169 170
261 247 239 237 235 230 226 225 223 237 225 214 213 206 208 180 173 174 173 173 174 174
259 242 231 225 223 221 221 219 224 242 219 216 199 198 191 178 167 166 167 167 172 178
270 231 218 217 213 212 211 213 220 234 220 211 198 184 183 169 168 165 166 165 165 167
311 196 191 198 196 201 206 204 211 227 215 196 189 177 176 168 166 163 167 163 162 157
357 41 171 177 183 186 200 200 209 209 191 174 176 171 166 163 156 157 159 164 163 160
7 32 60 75 124 161 161 145 116 163 155 171 172 162 152 143 140 139 130 142 149 150
12 29 44 54 55 75 95 93 93 82 124 148 146 142 135 131 128 126 119 102 129 139
18 31 37 49 46 53 72 82 84 74 78 106 124 123 119 126 125 125 104 121 130 141